Weather in Ronneby

Sweden     56°12′30″N   15°16′53″E
temp.,
°C
wind,
m/s
gust,
m/s
humid.,
%
clouds,
%
prec.,
mm/h
press.,
hPa
HPBL,
m
14 may, fri
fri1423:00+10ne2472100 0.0 100465
02:00+9ne2675100 0.0 1004112
05:00+8ne2489100 0.0 100383
08:00+12e3667100 0.0 1003425
11:00+16ese4547100 0.0 1004974
14:00+17se4447100 0.0 10031578
17:00+13sse3464100 0.0 1004574
20:00+10ssw1280100 0.1 1004173
15 may, sat
sat1523:00+9ssw1286100 0.1 100468
02:00+9s2587100 0.1 1004209
05:00+9s2688100 0.1 1003261
08:00+9s389099 0.6 1003352
11:00+11ssw4685100 0.3 1003550
14:00+13ssw566899 0.3 1004945
17:00+12ssw466871 0.0 1004536
20:00+10ssw3878100 0.0 1004256
16 may, sun
sun1623:00+7s229072 0.0 100517
02:00+7ese239297 0.0 100568
05:00+6e37915 0.0 1004159
08:00+12ese237698 0.0 1004287
11:00+14se5769100 0.3 1004675
14:00+10ese3796100 1.1 1003338
17:00+9sse2497100 0.8 1003274
20:00+9s2495100 0.8 1003287
17 may, mon
mon1723:00+7ssw2297100 0.0 100325
02:00+6s119798 0.0 100311
05:00+6se119643 0.0 100212
08:00+11sse2385100 0.0 1002267
11:00+14s356126 0.1 1003962
14:00+15s45576 0.1 10031062
17:00+13s4563100 0.0 1003703
20:00+10ssw2481100 0.0 1004212
18 may, tue
tue1823:00+7ssw229510 0.0 100416
02:00+7se119482 0.0 100419
05:00+9s119493 0.0 100331
08:00+11sw247886 0.0 1003409
11:00+12ssw467955 0.1 1004601
14:00+13ssw566736 0.3 1005950
17:00+13ssw457033 0.1 1004783
20:00+11ssw238791 0.4 1005105